DIAMANT B-P4 DEB, 7659

Orbit data source: Space-Track

DIAMANT B-P4 DEB, 7659 is space debris in LEO originally from a launch on Thu, 06 Feb 1975 UTC launched from the French Guiana (FRGUI). Debris objects in space refer to the collection of defunct objects orbiting the Earth. Examples of debris include non-operational satellites, rocket bodies, and fragments generated from explosions, collisions, or faulty payload assembly.

Loading next visibility...
Identifier
7659, 1975-010E
Orbit
LEO
Country
Flag of FRFR
Related business
Manufacturer
Unknown
Mission
Spacecraft
Bus & Motor
Unknown
Mass
Unknown
Launch date (UTC)
1975-02-06 (51 years ago)
Launch vehicle
Unknown
Launch site
French Guiana (FRGUI)
Object type
Payload
Rocket body
Debris
Shape & HBR
Unknown shape, 0.3 m
Radar Cross Section
Medium (>0.1 m² and <1 m²)

Expand to show TLE details & history
Last TLE update: 13 hours ago

TLE from 13 hours ago
0 DIAMANT B-P4 DEB
1  7659U 75010E   25312.87099214  .00000553  00000-0  45650-3 0  9999
2  7659  49.8154 254.2976 0185912 311.4950  47.0119 13.93929375574610
Epoch: 2025-11-08T20:54Z
TLE epoch observation values (Epoch: 2025-11-08T20:54:13.720Z)
Latitude
-0.00004°
Longitude
-107.55399°
Altitude
824.328 km
Speed
7.488 km/s
True Right ascension
16h 57m 11s
True Declination
0° 00' 00"
Sunlit
Object was in daylight at epoch
Visualization orbit readout
Latitude
Unknown
Longitude
Unknown
Altitude
Unknown
Speed
Unknown
Apparent Right ascension
Unknown
Apparent Declination
Unknown
Sunlit
N/A
Visualization observer readout
Local Sidereal Time
05:52:17
Azimuth
Unknown
Elevation
Unknown
Doppler factor
Unknown
Orbital elements
Apogee altitude
1,051.25 km
Perigee altitude
780.05 km
Semi-major axis
7,293.787 km
Eccentricity
0.01859
Inclination
49.8154°
RAAN
254.2976°
Arg. of periapsis
311.495°
True anomaly
48.59515°
Mean anomaly
47.0119°
Eccentric anomaly
47.80102°
Mean motion
3.48428 °/min
Orbital period
103.32 mins
BSTAR
0.0004565
Loading maneuver chart data...
Computing Atmospheric mass density...
Loading historical data...
Loading historical data...
Loading historical data...
Loading historical data...
Loading historical data...
Loading historical data...
Loading historical data...
Other satellites on launch #10 in the year 1975 (1975-02-06 UTC)

Documentation

Showing up to 5 results
|